Temp
6 6 7 6 6 6 6 6 6 6 6 6 6 6 6 7 7 7 7 6 6 6 6 6 6 5 4 3 3 2 3 2
6 6 6 6 6 6 6 6 6 6 6 6 6 6 7 7 7 7 7 7 6 6 6 6 6 5 4 3 2 3 3 2
6 6 6 6 6 6 6 6 6 6 6 6 5 6 6 6 6 7 7 7 6 6 6 6 5 5 5 4 3 3 2 2
6 6 6 6 6 6 6 6 6 6 6 6 6 5 5 6 6 7 7 7 6 6 5 6 5 5 5 4 3 3 1 2
6 6 5 5 6 6 6 6 6 6 6 6 6 6 7 7 7 7 7 7 6 6 5 5 5 4 4 4 3 2 1 1
5 6 6 5 6 6 6 6 7 6 6 7 7 6 6 7 7 7 7 6 6 5 5 5 5 4 3 3 2 2 1 1
4 5 5 6 5 6 6 6 6 6 7 7 6 6 6 6 7 7 7 6 6 5 5 5 4 4 3 3 2 2 2 2
4 5 5 6 6 6 6 6 6 6 6 6 6 6 6 6 6 7 7 6 5 6 5 5 4 4 3 3 2 2 1 1
3 4 5 5 5 6 6 6 5 5 5 5 5 5 6 6 7 7 7 6 5 6 6 4 4 3 3 2 2 2 2 2
2 4 4 4 4 5 5 5 4 5 5 4 4 4 5 6 7 7 6 6 5 6 5 4 4 3 2 2 1 1 1 1
3 3 3 4 4 4 4 4 4 4 3 3 4 4 5 6 6 6 6 5 6 6 5 4 3 2 1 1 1 1 1 1
2 3 3 4 4 4 3 4 4 3 2 2 2 3 5 6 6 6 5 5 5 6 4 4 3 2 1 1 1 1 0 1
2 2 3 3 4 4 3 3 3 3 2 1 2 2 4 5 5 5 5 5 5 5 4 4 3 2 1 1 1 1 0 0
1 1 2 3 3 3 3 2 2 3 3 2 1 2 4 4 4 5 5 5 5 5 4 3 3 3 1 0 1 1 1 0
1 1 2 1 1 1 2 2 2 2 2 2 3 3 3 4 4 4 5 5 5 5 4 4 3 3 1 0 1 0 1 0
-0 -0 0 -1 0 0 0 1 1 2 1 1 2 2 2 2 4 4 3 4 4 4 3 3 3 3 1 -0 -0 0 1 0
-1 -1 0 0 -0 0 1 1 0 1 2 1 2 1 2 2 2 3 3 3 3 3 3 3 2 2 1 1 -0 -0 1 0
-2 -1 -0 -0 -0 0 0 1 1 1 0 2 2 2 2 1 2 1 3 2 1 2 2 2 2 2 2 1 1 0 1 1
-3 -3 -2 -2 -1 -0 0 0 0 1 1 0 0 0 1 1 2 1 0 0 1 1 1 2 2 1 1 1 1 1 0 0
Height
3044 3044 3044 3045 3049 3053 3054 3058 3063 3067 3071 3073 3078 3081 3084 3086 3089 3091 3092 3093 3094 3093 3092 3091 3092 3093 3094 3095 3096 3099 3101 3102
3035 3036 3037 3038 3039 3043 3044 3048 3052 3057 3061 3064 3068 3073 3077 3080 3083 3086 3086 3087 3088 3088 3088 3087 3087 3088 3089 3090 3091 3093 3095 3098
3025 3028 3031 3031 3033 3034 3036 3040 3042 3047 3053 3059 3062 3068 3071 3074 3077 3080 3081 3082 3083 3083 3084 3082 3083 3084 3084 3085 3087 3088 3090 3093
3014 3015 3020 3021 3023 3027 3027 3031 3036 3039 3047 3050 3054 3058 3064 3066 3069 3072 3075 3077 3078 3078 3078 3078 3077 3077 3078 3079 3081 3082 3085 3087
3003 3004 3006 3008 3011 3015 3019 3023 3027 3031 3037 3043 3047 3052 3058 3061 3063 3066 3069 3071 3072 3073 3073 3073 3072 3071 3071 3073 3074 3076 3078 3081
2996 2997 2999 3000 3003 3007 3010 3016 3019 3023 3031 3037 3041 3045 3051 3055 3056 3059 3062 3064 3066 3067 3067 3066 3065 3064 3065 3066 3068 3070 3072 3075
2993 2992 2994 2995 2995 3000 3004 3009 3013 3018 3022 3030 3035 3040 3045 3047 3050 3053 3056 3059 3060 3061 3061 3060 3058 3057 3059 3060 3062 3064 3066 3068
2990 2990 2990 2991 2992 2994 2998 3002 3006 3013 3017 3024 3028 3033 3037 3040 3043 3047 3050 3053 3054 3055 3055 3054 3052 3052 3054 3055 3056 3058 3058 3061
2985 2985 2985 2986 2986 2988 2992 2998 3001 3005 3011 3016 3020 3025 3029 3033 3037 3041 3044 3047 3048 3048 3049 3047 3047 3048 3049 3050 3050 3050 3051 3053
2981 2979 2978 2980 2981 2984 2988 2992 2997 3002 3006 3012 3015 3019 3022 3026 3031 3034 3037 3040 3041 3042 3043 3041 3042 3043 3043 3043 3043 3043 3044 3044
2975 2974 2972 2975 2977 2979 2983 2987 2992 2995 2999 3004 3008 3012 3016 3021 3026 3029 3032 3035 3035 3037 3037 3036 3036 3036 3036 3035 3035 3036 3035 3035
2971 2968 2969 2970 2972 2975 2979 2983 2987 2989 2989 2984 2997 3003 3009 3014 3018 3023 3026 3029 3029 3032 3031 3031 3031 3030 3030 3030 3029 3028 3025 3028
2967 2965 2965 2966 2967 2971 2976 2977 2981 2985 2981 2974 2988 2997 3004 3008 3013 3018 3022 3023 3024 3027 3026 3026 3026 3026 3026 3025 3024 3023 3021 3023
2965 2964 2962 2962 2964 2967 2972 2974 2976 2979 2980 2983 2987 2994 3000 3004 3008 3012 3016 3018 3019 3022 3021 3022 3022 3022 3021 3021 3021 3021 3019 3019
2964 2963 2960 2959 2961 2964 2967 2970 2972 2976 2979 2983 2988 2992 2996 2999 3004 3007 3010 3012 3015 3017 3018 3018 3020 3019 3018 3019 3019 3019 3018 3018
2963 2962 2959 2959 2960 2962 2964 2967 2968 2971 2973 2978 2983 2988 2991 2995 2999 3002 3006 3008 3011 3012 3014 3014 3016 3016 3016 3017 3017 3017 3017 3018
2963 2961 2959 2957 2958 2961 2962 2965 2967 2969 2970 2974 2978 2981 2987 2990 2994 2997 3000 3003 3007 3009 3010 3011 3012 3013 3013 3013 3014 3016 3018 3018
2962 2960 2957 2955 2956 2958 2961 2962 2965 2967 2971 2972 2975 2978 2982 2985 2988 2991 2996 2999 3001 3003 3005 3007 3008 3009 3010 3010 3011 3013 3015 3017
2963 2961 2957 2955 2955 2956 2959 2960 2962 2963 2966 2966 2970 2973 2977 2980 2984 2986 2988 2992 2995 2997 2999 3002 3003 3005 3006 3007 3008 3010 3012 3014
Wind_Speed
31 34 32 29 33 35 36 47 42 38 36 35 29 31 33 32 29 26 22 21 21 20 20 19 18 20 23 25 24 25 27 24
37 33 29 33 36 40 38 34 47 48 43 41 33 27 29 31 29 28 25 23 22 21 21 20 18 21 22 24 27 25 25 26
43 41 37 37 37 33 40 39 36 47 43 38 34 29 25 25 27 29 29 26 23 22 22 22 20 21 23 25 28 28 26 28
38 40 36 37 45 39 37 36 38 41 45 39 40 32 31 28 27 32 31 25 24 24 23 23 23 22 24 26 28 31 28 27
27 36 28 31 41 47 43 36 37 39 48 39 36 30 32 28 29 30 27 26 25 24 25 25 24 23 24 27 29 31 33 29
26 24 26 30 29 46 35 33 34 36 43 36 33 33 32 30 28 28 28 28 25 24 26 26 24 23 23 22 25 29 29 33
20 23 24 33 32 33 37 34 33 34 37 37 39 33 32 32 30 29 29 28 24 23 26 26 23 20 20 19 23 26 30 33
22 23 28 31 34 33 37 39 34 34 37 34 34 31 31 34 31 28 28 27 22 24 26 23 18 19 21 23 24 23 28 32
26 24 26 33 36 36 30 34 35 32 34 35 34 30 32 29 31 29 29 26 21 24 24 18 17 21 24 25 25 27 29 28
31 35 29 27 28 31 28 28 28 28 32 32 33 30 28 27 31 30 27 24 21 21 22 17 19 23 24 27 30 33 30 33
21 21 19 30 26 25 25 23 27 31 32 35 33 32 27 27 30 25 24 23 18 20 20 17 21 23 23 25 25 26 30 34
7 15 17 24 28 26 21 24 29 33 40 41 33 31 29 28 24 24 25 20 15 20 19 19 20 22 21 18 19 20 24 28
7 7 17 19 23 27 20 25 28 29 27 20 28 30 25 26 25 22 23 21 15 20 18 16 18 21 19 15 11 18 18 22
12 9 10 21 21 22 21 22 21 19 15 10 14 21 25 27 26 26 25 20 17 21 17 15 16 18 16 16 12 14 15 24
10 9 11 13 21 20 21 24 24 19 21 21 24 26 28 30 26 24 25 21 20 19 18 14 14 13 14 15 15 14 9 10
7 6 8 9 13 11 14 10 9 16 19 24 30 27 24 27 26 27 24 18 20 17 19 15 13 12 12 16 19 14 14 10
6 8 8 7 12 12 10 9 11 13 16 15 25 23 22 27 28 27 19 20 25 21 20 18 15 13 10 11 14 15 17 18
9 11 12 6 13 13 14 14 17 15 24 19 25 23 22 24 28 23 36 24 23 25 23 21 19 16 14 14 14 18 20 20
12 13 15 7 5 12 17 18 17 21 23 20 20 18 18 18 31 38 37 29 26 28 28 24 23 22 20 19 18 19 22 24
Wind_Direction
252 246 247 234 237 246 249 243 239 239 236 237 240 241 232 236 244 252 259 269 280 293 297 280 269 255 250 245 238 233 234 235
245 240 235 233 231 232 248 245 237 236 231 232 231 242 237 237 245 249 256 265 275 287 294 280 270 261 253 245 240 233 238 232
253 246 240 237 237 235 236 242 243 234 231 234 230 243 247 246 251 246 252 261 269 279 291 282 269 262 254 245 239 234 234 236
259 244 254 255 235 232 233 240 241 235 227 234 228 228 239 249 250 241 247 258 264 274 287 283 273 265 259 251 245 239 233 234
281 251 246 247 230 230 231 243 239 234 224 231 228 231 250 260 252 237 246 254 262 273 285 281 273 265 259 250 242 235 241 235
257 251 243 226 225 224 229 237 231 231 225 231 235 235 241 258 242 235 244 252 262 271 283 281 273 261 255 245 240 244 241 241
238 238 238 231 225 226 229 229 233 230 231 230 233 228 247 253 238 236 246 253 258 272 280 278 268 262 250 246 245 241 247 244
239 237 236 235 235 236 234 227 227 234 232 227 225 236 245 255 240 235 245 248 254 273 275 268 261 257 248 243 243 244 251 242
242 254 243 237 233 235 236 232 230 217 220 221 227 238 246 243 231 236 243 245 254 271 277 261 256 253 249 248 249 251 247 244
253 256 248 231 234 231 234 230 223 228 226 226 235 239 234 226 227 234 236 238 256 273 273 259 257 253 252 251 253 255 247 246
243 245 242 225 228 226 227 227 225 222 225 230 230 236 223 218 227 233 228 238 259 275 268 258 260 259 263 260 257 252 246 253
277 247 240 224 225 228 228 234 232 227 223 217 222 226 214 218 226 226 226 243 260 271 261 258 266 267 268 254 247 262 236 241
338 284 240 231 223 229 232 240 240 249 262 205 212 204 228 221 223 229 232 242 253 261 256 262 273 271 257 246 256 250 244 220
344 335 268 234 228 218 216 223 235 243 237 230 202 227 224 216 220 224 234 239 249 252 247 251 263 260 233 239 244 247 248 223
336 336 327 251 235 236 229 228 231 212 221 225 219 228 229 214 220 230 236 237 245 245 243 244 257 256 243 230 247 233 211 221
343 323 341 258 240 247 244 238 235 237 236 227 224 227 222 226 218 237 237 244 252 238 243 239 244 245 236 228 233 224 223 209
1 4 336 252 246 233 227 223 208 216 225 234 213 227 216 225 233 235 240 247 257 248 237 238 237 235 233 231 213 218 220 221
10 6 2 243 226 224 228 220 204 216 215 207 202 211 225 231 231 230 232 238 247 259 251 239 238 234 232 229 227 212 226 227
20 21 28 28 257 205 227 217 226 207 229 213 222 221 215 234 242 240 232 242 254 249 258 251 242 239 234 234 230 225 220 222